Home > Weather > Allentown > Past weeks

Flag for USA Past Weather in Allentown, Pennsylvania, USA — Yesterday and Last 2 Weeks

Now
67 °F

Sunny.


Feels Like: 67 °F
Forecast: 58 / 86 °F
Wind: No wind

Location: Lehigh Valley International Airport

Current Time: May 26, 2016 at 8:45:24 AM

Latest Report: May 26, 2016 at 7:51 AM


Visibility: 8 mi

Pressure: 30.12 "Hg

Humidity: 68%

Dew Point: 56 °F

Location of AllentownLocation

Past Weather in Allentown — Graph

°F

Allentown Temperature Yesterday

Maximum temperature yesterday: 87 °F (at 3:51 PM)
Minimum temperature yesterday: 52 °F (at 5:53 AM)
Average temperature yesterday: 70 °F

High & Low Weather Summary for the Past Weeks

 TemperatureHumidityPressure
High87 °F (May 25, 3:51 PM)97% (May 14, 6:51 AM)30.28 "Hg (May 14, 6:51 AM)
Low37 °F (May 16, 3:51 AM)22% (May 24, 4:51 PM)29.63 "Hg (May 14, 6:51 PM)
Average61 °F62%30.01 "Hg
* Reported May 11 6:51 AM — May 26 6:51 AM, Allentown, Weather by CustomWeather, © 2016

Note: Actual official high and low records may vary slightly from our data, if they occured in-between our weather recording intervals... More about our weather records

Advertising

Allentown Weather History for the Previous 24 Hours

Scroll right to see more
 ConditionsComfort  
Time TempWeatherWind HumidityBarometerVisibility
6:51 AM
Thu, May 26
62 °FSunny.No wind78%30.12 "Hg8 mi
5:51 AM57 °FClear.5 mph87%30.11 "Hg7 mi
4:51 AM59 °FClear.3 mph81%30.09 "Hg9 mi
3:51 AM61 °FClear.No wind75%30.09 "Hg10 mi
2:51 AM60 °FClear.No wind78%30.09 "Hg10 mi
1:51 AM63 °FClear.5 mph70%30.08 "Hg10 mi
12:51 AM64 °FClear.3 mph65%30.08 "Hg10 mi
11:51 PM
Wed, May 25
67 °FClear.3 mph57%30.08 "Hg10 mi
10:51 PM69 °FClear.5 mph51%30.08 "Hg10 mi
9:51 PM71 °FClear.5 mph47%30.08 "Hg10 mi
8:51 PM69 °FSunny.7 mph51%30.06 "Hg10 mi
7:51 PM78 °FSunny.9 mph36%30.05 "Hg10 mi
6:51 PM83 °FSunny.15 mph28%30.04 "Hg10 mi
5:51 PM85 °FSunny.14 mph29%30.04 "Hg10 mi
4:51 PM86 °FSunny.15 mph28%30.04 "Hg10 mi
3:51 PM87 °FSunny.9 mph24%30.05 "Hg10 mi
2:51 PM86 °FSunny.5 mph25%30.06 "Hg10 mi
1:51 PM86 °FSunny.10 mph27%30.07 "Hg10 mi
12:51 PM84 °FSunny.8 mph29%30.09 "Hg10 mi
11:51 AM82 °FSunny.7 mph33%30.10 "Hg10 mi
10:51 AM78 °FSunny.7 mph35%30.10 "Hg10 mi
9:51 AM74 °FSunny.6 mph45%30.11 "Hg10 mi
8:51 AM66 °FSunny.5 mph63%30.11 "Hg10 mi
Weather by CustomWeather, © 2016

See weather overviewHow to use our weather pages